Regional Weather Roundup
Issued by NWS Portland, ME

Home | Current Version | Previous Version | Text Only | Print | Product List | Glossary On
Versions: 1 2 3 4 5 6 7 8 9 10 11 12 13 14 15 16 17 18 19 20 21 22 23 24 25 26 27 28 29 30 31 32 33 34 35 36 37 38 39 40 41 42 43 44 45 46 47 48 49 50
000
ASUS41 KGYX 181910
RWRGYX
WEATHER ROUNDUP FOR MAINE AND NEW HAMPSHIRE
NATIONAL WEATHER SERVICE GRAY ME
300 PM EDT THU SEP 18 2014

MEZ002-005-006-010-012-015-018-020-021-024-026-027-029-182000-
MAINE

CITY           SKY/WX    TMP DP  RH WIND       PRES   REMARKS
PORTLAND       CLOUDY    67  48  50 NW7       29.95R
SANFORD        SUNNY     70  45  40 W13       29.96S
BAR HARBOR     CLOUDY    64  48  55 NW7       29.93R
WISCASSET      CLOUDY    67  49  52 VRB6      29.96R
ROCKLAND       PTSUNNY   66  48  52 NW10      29.92S
FRYEBURG       PTSUNNY   63  43  48 NW15G22   29.98R
LEWISTONAUBURN PTSUNNY   66  46  48 NW13      29.96S
AUGUSTA        MOSUNNY   66  43  43 NW9G20    29.96S
WATERVILLE     MOSUNNY   63  41  45 NW13G18   29.91S
BANGOR         PTSUNNY   65  40  39 NW14      29.95R
GREENVILLE       N/A     52  35  52 NW9G22    29.96R
MILLINOCKET    MOSUNNY   60  36  40 W12       29.98R
HOULTON        PTSUNNY   53  38  56 NW9G18    29.96R
PRESQUE ISLE   PTSUNNY   52  34  50 W7        29.96S
FRENCHVILLE    PTSUNNY   45  30  55 NW14      29.96S
CARIBOU        PTSUNNY   52  32  46 NW10G18   29.96R
$$

NHZ002-005-008-009-011-012-014-182000-
NEW HAMPSHIRE

CITY           SKY/WX    TMP DP  RH WIND       PRES   REMARKS
PORTSMOUTH     MOSUNNY   72  47  41 NW13      29.94S
ROCHESTER      MOSUNNY   70  47  43 NW8G17    29.95S
NASHUA         MOSUNNY   71  49  45 VRB7      29.96F
MANCHESTER     PTSUNNY   70  46  42 NW9       29.95S
CONCORD        MOSUNNY   71  47  42 N12       29.96F
LACONIA        CLOUDY    64  45  48 NW10      29.97R
PLYMOUTH       FAIR      63  51  64 NW8       29.99S
BERLIN         CLOUDY    56  42  59 NW9G17    30.03R
WHITEFIELD     PTSUNNY   55  43  63 W10       30.04R
JAFFREY        PTSUNNY   67  47  48 NW6       29.99S
LEBANON        CLOUDY    65  47  52 N10       29.99S
MT WASHINGTON  FOG       32  32 100 NW46G58     N/A  VSB 1/16WCI  15
$$

VTZ005-007-008-182000-
VERMONT

CITY           SKY/WX    TMP DP  RH WIND       PRES   REMARKS
ST JOHNSBURY     N/A     53  41  63 MISG      30.04S
MONTPELIER     CLOUDY    52  43  71 N8G17     30.09R
BURLINGTON     PTSUNNY   54  39  57 N13       30.10S
$$

MAZ007-012-024-CTZ003-RIZ002-NYZ038-NYZ072-182000-
SOUTHERN NEW ENGLAND AND NY

CITY           SKY/WX    TMP DP  RH WIND       PRES   REMARKS
BOSTON         MOSUNNY   73  45  36 NW7       29.95F
WORCESTER      PTSUNNY   67  46  47 W8        29.98F
NANTUCKET      SUNNY     71  45  39 NW8       29.95S
PROVIDENCE     PTSUNNY   76  45  33 NW8       29.95F
HARTFORD       MOSUNNY   75  47  36 CALM      29.96F
ALBANY         PTSUNNY   69  48  47 NW13G20   30.00S
NEW YORK CITY  PTSUNNY   75  46  35 NW6       29.98S
$$

ANZ081-ANZ082-ANZ150-NHZ014-MEZ023>029-182000-
COASTAL MARINE OBSERVATIONS

STATION/POSITION TIME  TEMP    WIND        PRES    WAVE
                       AIR SEA DIR/SP/G            HT/PER
                 (UTC) (F)     (DEG/KT/KT) (MB)    (FT/S)
MATINICUS ROCK   1900          330/  5/  6 1013.4R
PORTLAND WX BUOY 1850   62 61  200/  2/  4 1014.2R   4/11
WELLS            1800   70 60  330/  8/ 11 1013.1F
ISLE OF SHOALS   1900   67     330/  8/ 10 1013.6F
JEFFREYS LEDGE   1821      63                N/A     3/14
CASHES LEDGE BUO 1850   62 64              1013.6F
$$

.............KEY..............
   WCI - WIND CHILL
   TC  - TEMPERATURE IN CELSIUS
   VSB - VISIBILITY IN MILES
   HX  - HEAT INDEX
   FAIR- INDICATES FEW OR NO CLOUDS BELOW 12,000 FT, WITH NO
         SIGNIFICANT WEATHER AND/OR OBSTRUCTIONS TO VISIBILITY.




USA.gov is the U.S. government's official web portal to all federal, state and local government web resources and services.